Regional Weather Roundup
Issued by NWS Charleston, WV

Home | Current Version | Previous Version | Graphics & Text | Print | Product List | Glossary On
Versions: 1 2 3 4 5 6 7 8 9 10 11 12 13 14 15 16 17 18 19 20 21 22 23 24 25 26 27 28 29 30 31 32 33 34 35 36 37 38 39 40 41 42 43 44 45 46 47 48 49 50
000
ASUS41 KRLX 190910
RWRRLX
West Virginia Regional Weather Roundup
National Weather Service Charleston WV
500 AM EDT SUN APR 19 2015

Note: "fair" indicates few or no clouds below 12,000 feet with no
significant weather and/or obstructions to visibility.

WVZ003-191000-
Northern Panhandle of West Virginia

CITY           SKY/WX    TMP DP  RH WIND       PRES   REMARKS
WHEELING       CLOUDY    56  38  50 NE10      30.01F
$$

WVZ009-191000-
Northwest West Virginia

CITY           SKY/WX    TMP DP  RH WIND       PRES   REMARKS
PARKERSBURG    MOCLDY    62  41  46 E8        29.97F
$$

WVZ006-191000-
Western West Virginia

CITY           SKY/WX    TMP DP  RH WIND       PRES   REMARKS
HUNTINGTON     CLOUDY    62  44  51 E6        29.90S
$$

WVZ015-191000-
West Central West Virginia

CITY           SKY/WX    TMP DP  RH WIND       PRES   REMARKS
CHARLESTON     PTCLDY    57  48  72 CALM      29.93S
$$

WVZ022-031-191000-
North Central West Virginia

CITY           SKY/WX    TMP DP  RH WIND       PRES   REMARKS
CLARKSBURG     PTCLDY    51  45  79 NE3       29.99F
MORGANTOWN     MOCLDY    60  37  42 NE5       30.02S
$$

WVZ025-035-042-045-191000-
Southern West Virginia

CITY           SKY/WX    TMP DP  RH WIND       PRES   REMARKS
BECKLEY        MOCLDY    62  50  64 SE9       30.00S
LOGAN          MOCLDY    68  54  60 E6        29.89F
BLUEFIELD      CLOUDY    64  55  72 E8        30.00F
LEWISBURG      PTCLDY    62  47  59 NE5       30.03F
$$

WVZ047-191000-
Northern Mountains of West Virginia

CITY           SKY/WX    TMP DP  RH WIND       PRES   REMARKS
ELKINS         CLEAR     43  41  93 CALM      30.04S
$$

WVZ052-191000-
Eastern Panhandle of West Virginia

CITY           SKY/WX    TMP DP  RH WIND       PRES   REMARKS
MARTINSBURG    MOCLDY    57  35  43 N8        30.09R
PETERSBURG     PTCLDY    46  42  86 CALM      30.08R
$$


USA.gov is the U.S. government's official web portal to all federal, state and local government web resources and services.